Simultaneous Nadir Overpasses (SNOs) Predictions

Prediction of SNOs between GOES-17 and TERRA Satellite Orbit:

Table of predicted SNOs for the next 14.0 days since TLE Epoch: 3/12/2022
Index Date Time (GOES-17) GOES-17 Lat,Lon TERRA Lat,Lon Distance(km) Time Diff (sec)
1 03/12/2022 19:31:36 0.04,-137.21 0.04,-137.08 14.31 80
2 03/14/2022 19:19:22 0.04,-137.20 -0.64,-134.13 349.55 80
3 03/15/2022 07:40:45 -0.04,-137.20 -0.49,-139.32 241.19 80
4 03/17/2022 07:25:50 -0.03,-137.19 0.13,-136.36 93.78 80
5 03/17/2022 19:47:05 0.03,-137.18 0.94,-141.52 493.17 80
6 03/19/2022 07:13:35 -0.03,-137.17 0.77,-133.40 428.36 80
7 03/19/2022 19:34:50 0.03,-137.17 0.30,-138.57 158.74 80
8 03/21/2022 19:25:14 0.03,-137.14 -0.28,-135.60 174.97 80
9 03/22/2022 07:46:37 -0.03,-137.14 -0.84,-140.79 416.16 80
10 03/24/2022 07:34:22 -0.03,-137.10 -0.18,-137.84 83.84 80
